Погода Туапсе

Погода Туапсе : погода сейчас, прогноз погоды и архив. Всё, что Вы хотите узнать о погоде Туапсе!

Хотите узнать прогноз погоды Туапсе? Тогда Вам сюда: Погода Туапсе

Поиск расширенной информации на нашем сайте:

Полезная информация:

Другие новости

Новости СМИ2

Главная страница сайта

Новости сайта

03.07.2017

Напоминаем, что на нашем специализированном сайте Метеоцентр.Азия вы можете получить высокодетализированные автоматические прогнозы погоды по пунктам России, СНГ и мира в авиационном формате (включающие направление и скорость ветра, видимость, явления погоды, количество и форму облачности, нижнюю и верхнюю границу облачности).

Рекомендуем:

Погода Туапсе - сегодня

Время (UTC), дата Ветер
(°,м/с) 
Видим.   Явления Облачность Т
(°С)
Тd
(°С)
f(%) Тe
(°С)
Pmin
(гПа)
dP
(гПа)
Po
(мм)
O2
(г/м3)
Тmin Tmax R s Состояние
почвы
09 15.09.19 240 (ЮЗ) 20000 м    8/3 1000 м верхняя 
[Cu Sc|Ci fib]
+28.1 +10 32 +29  1018.6  0.3  759  275           
12 15.09.19 210 (ЮЗ) 20000 м    4/1 1000 м верхняя 
[Cu med, cong|Ci fib]
+27.8 +10.2 33 +29  1018.7  0.1  759  276           
15 15.09.19 230 (ЮЗ) 20000 м    8/6 1000 м кучево-дожд., средняя, верхняя 
[Cb cap|Ac trans|Ci fib]
+24.8 +10.9 42 +27  1019.2  0.4  759  278    +29.6       
18 15.09.19 020 (С) 10 км    6/0 средняя 
[Ac cast]
+21.2 +13.4 61 +27  1019.8  0.5  759  281           
21 15.09.19 010 (С) 10 км    6/0 средняя 
[Ac cast]
+19.7 +10.3 55 +22  1018.8  -1  759  283           
00 16.09.19 040 (СВ) 10 км    3/0 средняя 
[Ac cast]
+13.1 +17.3 100 +26  1018.4  -0.4  758  288           
03 16.09.19 040 (СВ) 20000 м    ясно 
+17.2 +9.6 61 +18  1017.1  -1.4  757  285  +17.2        сухая 
06 16.09.19 060 (СВ) 20000 м    ясно 
+23.7 +11.4 46 +27  1016.2  -0.9  757  278           
09 16.09.19 140 (ЮВ) 20000 м    ясно 
+25.1 +17.3 62 +38  1015.6  -0.6  756  275           
12 16.09.19 210 (ЮЗ) 20000 м    ясно 
+28.2 +16.5 49 +39  1014  -0.6  755  272           
15 16.09.19 280 (З) 20000 м    ясно 
+23.9 +12.8 50 +29  1013.5  -0.3  755  277    +28.4       
18 16.09.19 030 (СВ) 10 км    ясно 
+20.7 +12.8 61 +26  1014.3  0.7  755  280           
21 16.09.19 030 (СВ) 10 км    ясно 
+18.2 +13.1 72 +25  1014.1  -0.2  755  283           
00 17.09.19 020 (С) 10 км    4/0 верхняя 
[Ci fib]
+17.4 +12.8 74 +23  1013.4  -0.7  755  283           
03 17.09.19 050 (СВ) 20000 м    8/4 1000 м кучево-дожд., верхняя 
[Cb cap|Ci fib]
+16.5 +12.9 79 +22  1013.2  -0.3  754  284  +16.5        сухая 
06 17.09.19 030 (СВ) 20000 м    8/6 1000 м кучево-дожд., средняя, верхняя 
[Cb cap|Ac cast|Ci sp]
+19.5 +14.1 71 +28  1013.4  0.3  755  281           
09 17.09.19 //0 (С) //  н/о    н/о 
             
12 17.09.19 230 (ЮЗ) 20000 м    4/3 1000 м верхняя 
[Cu med, cong|Ci sp]
+25.7 +11.7 42 +29  1013.4  0.4  755  276           
15 17.09.19 220 (ЮЗ) 20000 м    8/8 1000 м кучево-дожд. 
[Cb cap]
+21 +12.1 57 +25  1014  0.4  755  280    +26.9       
18 17.09.19 230 (ЮЗ) 10 км    8/8 1000 м 
[Sc]
+20.6 +12.2 59 +25  1015.2  1.2  756  281           
21 17.09.19 150 (ЮВ) 5{10}  10 км    10/10 1000 м кучево-дожд. 
[Cb cap]
+20.8 +12.6 59 +25  1015.3  0.1  756  281           
00 18.09.19 140 (ЮВ) 6-12{14}  10 км    10/10 1000 м кучево-дожд. 
[Cb cap]
+20.5 +13.9 66 +27  1015.7  0.4  756  281           
03 18.09.19 140 (ЮВ) 10 км    10/10 1000 м кучево-дожд. 
[Cb cap]
+20.4 +13.4 64 +26  1015.4  -0.3  756  281  +20.2         
06 18.09.19 140 (ЮВ) 6-12  20000 м    9/9 1000 м кучево-дожд. 
[Cb cap]
+22 +13.1 57 +27  1015.8  0.4  756  280          замёрзшая 
09 18.09.19 140 (ЮВ) 6-13{13}  20000 м    8/8 1000 м 
[Cu Sc]
+22.9 +15.4 63 +32  1016  0.3  757  278           
Время (UTC), дата Ветер
(°,м/с) 
Видим.   Явления Облачность Т
(°С)
Тd
(°С)
f(%) Тe
(°С)
Pmin
(гПа)
dP
(гПа)
Po
(мм)
O2
(г/м3)
Тmin Tmax R s Состояние
почвы

Для получения пояснительной информации подведите курсор к названию столбца.

ПОГОДА Туапсе - архив

Всё, что Вы хотите узнать о погоде Туапсе - удобно и подробно!

Выберите нужную дату (начиная с 1 января 2018* года) и нажмите кнопку "Найти".
Будут отображены архивные сводки погоды по пункту Туапсе, начиная с указанной даты.


Отображать данные в формате CSV (для использования в таблицах Excel)


Внимание! Наш архив погоды предназначен исключительно для личного некоммерческого использования в познавательных целях. Если Вам необходимы официальные справки о состоянии погоды (для производственных, юридических, коммерческих и т.п. целей), обращайтесь в органы Росгидромета.

*Примечание: данная дата относится к архиву по метеостанциям СССР (Россия, СНГ, Балтия).
Архив по метеостанциям Зарубежной Европы и Азии (кроме Китая) хранится 10 дней, по другим регионам земного шара (Китай, Африка, Америка, Австралия, Океания) - 1 день.

Туапсе - район местоположения метеостанции


Название, широта, долгота, высота метеостанции:
Туапсе 44.1°ш. 39.1°д. 61 м над ур. моря [Российская Федерация]

Дополнительная информация

В oтличие oт бoльшинства пoгoдных сайтoв мы публикуем пoдрoбную метеoинфoрмацию в детальнoм прoфессиoнальнoм фoрмате.

Характеристики температуры и влажнoсти вoздуха измеряются на высoте 2 м в тени вдали oт зданий и деревьев.
Скoрoсть ветра измеряется на высoте 10 м (на урoвне рoста челoвека скoрoсть ветра ниже в 1.5-2 раза). Если метеoстанция нахoдится в гoрoде или в лесу, тo скoрoсть ветра занижена на 2-4 м/с пo сравнению с oткрытым местoм. Скoрoсть ветра над акватoриями крупных рек и oзёр, а также на вершинах хoлмoв на 2-5 м/с выше, чем в oбычных услoвиях.
Атмoсфернoе давление в разных тoчках местнoсти мoжет значительнo oтличаться oт давления на метеoстанции, в зависимoсти oт услoвий рельефа (при пoдъёме на 10 м давление пoнижается примернo на 1 мм рт.ст.).